Tracking 19254 objects as of 20-Oct-2018
HD Live streaming from Space Station
objects crossing your sky now

GALILEO-FM4

Track GALILEO-FM4 now!
GALILEO-FM4 is classified as:


NORAD ID: 38858
Int'l Code: 2012-055B
Perigee: 23,226.1 km
Apogee: 23,232.6 km
Inclination: 54.9 °
Period: 844.7 minutes
Semi major axis: 29600 km
RCS: 13.2202 m2 (large)
Launch date: October 12, 2012
Source: European Space Agency (ESA)
Launch site: FRENCH GUIANA (FRGUI)

GALILEO-FM4 is one of the first four Galileo satellites which are part of system's in-orbit validation, or IOV, phase.
aabbcc
Your satellite tracking list
Your tracking list is empty




NASA's NSSDC Master Catalog

Two Line Element Set (TLE):
1 38858U 12055B   18292.40116705  .00000008  00000-0  00000+0 0  9998
2 38858  54.9123 178.5112 0001094 275.0063  85.0595  1.70473972 37417
Source of the keplerian elements: AFSPC